H-3 R/B, 100271

Orbit data source: Space-Track

H-3 R/B, 100271 is space debris in HEO originally from a launch on Mon, 10 Aug 2026 UTC launched from the Tanegashima Space Center (TNSTA). Debris objects in space refer to the collection of defunct objects orbiting the Earth. Examples of debris include non-operational satellites, rocket bodies, and fragments generated from explosions, collisions, or faulty payload assembly.

Loading next visibility...
Identifier
100271, 2026-182B
Orbit
HEO
Country
Flag of JPJP / JPN
Related business
Manufacturer
MHI Tobishima
Mission
Spacecraft
Bus & Motor
H-2A STAGE 2, Unknown motor
Mass
2,500 kg wet, 2,500 kg dry
Launch date (UTC)
2026-08-10 (1 month ago)
Launch vehicle
Unknown
Launch site
Tanegashima Space Center (TNSTA)
Object type
Payload
Rocket body
Debris
Shape & HBR
CYL, 6.0 m
Radar Cross Section
RCS unknown

Expand to show TLE details & history
Last TLE update: 20 hours ago

TLE from 20 hours ago
0 H-3 R/B
1 A0271U 26182B   26249.06897803  .00056831  86637-6  13617-2 0  9992
2 A0271  22.6338 281.7852 7258693 194.1602 121.6665  2.35498387   637
Epoch: 2026-09-06T01:39Z
TLE epoch observation values (Epoch: 2026-09-06T01:39:19.701Z)
Latitude
-0.00012°
Longitude
-88.22717°
Altitude
31,716.571 km
Speed
2.055 km/s
True Right ascension
18h 47m 05s
True Declination
0° 00' 00"
Sunlit
Object was in daylight at epoch
Visualization orbit readout
Latitude
Unknown
Longitude
Unknown
Altitude
Unknown
Speed
Unknown
Apparent Right ascension
Unknown
Apparent Declination
Unknown
Sunlit
N/A
Visualization observer readout
Local Sidereal Time
13:35:15
Azimuth
Unknown
Elevation
Unknown
Doppler factor
Unknown
Orbital elements
Apogee altitude
34,815.645 km
Perigee altitude
164.931 km
Semi-major axis
23,868.425 km
Eccentricity
0.72587
Inclination
22.6338°
RAAN
281.7852°
Arg. of periapsis
194.1602°
True anomaly
165.81626°
Mean anomaly
121.6665°
Eccentric anomaly
145.32656°
Mean motion
0.58858 °/min
Orbital period
611.64 mins
BSTAR
0.0013617
Loading maneuver chart data...
Computing Atmospheric mass density...
Loading historical data...
Loading historical data...
Loading historical data...
Loading historical data...
Loading historical data...
Loading historical data...
Loading historical data...
Other satellites on launch #182 in the year 2026 (2026-08-10 UTC)

Documentation

Showing up to 5 results
|